Coolangatta, Australia

3:43 AM AEDT on February 20, 2018 (GMT +1100)
Coolangatta

Weather History for YBCG - April, 2014

Change the Weather History Date:

Wednesday, April 2, 2014

  Actual Average Record
Temperature  
Mean Temperature 72 °F -  
Max Temperature 81 °F - - ()
Min Temperature 64 °F - - ()
Cooling Degree Days 8    
Growing Degree Days 22 (Base 50)    
Moisture  
Dew Point 65 °F    
Average Humidity 75    
Maximum Humidity 94    
Minimum Humidity 48    
Precipitation  
Precipitation 0.01 in - - ()
Sea Level Pressure  
Sea Level Pressure 30.02 in    
Wind  
Wind Speed 5 mph ()    
Max Wind Speed 15 mph    
Max Gust Speed -    
Visibility 6.2 miles    
Events      
T = Trace of Precipitation, MM = Missing Value Source: Averaged Metar Reports

Daily Weather History Graph

Daily Weather History Graph

Search for Another Location

Airport or City:

Trip Planner

Search our weather history database for the weather conditions in past years. The results will help you decide how hot, cold, wet, or windy it might be!

Date:

Astronomy

Apr. 02, 2014 Rise Set
Actual Time 5:56 AM AEST 5:42 PM AEST
Civil Twilight 5:32 AM AEST 6:06 PM AEST
Nautical Twilight 5:05 AM AEST 6:33 PM AEST
Astronomical Twilight 4:38 AM AEST 7:00 PM AEST
Moon 8:05 AM AEST (4/2) 7:23 PM AEST (4/2)
Length of Visible Light 12h 33m
Length of Day
11h 46m
Waxing Crescent, 6% of the Moon is Illuminated
Apr 2
Waxing Crescent
Apr 7
First Quarter
Apr 15
Full
Apr 22
Last Quarter
Apr 29
New

Hourly Weather History & Observations

Time (AEST) Temp. Heat Index Dew Point Humidity Pressure Visibility Wind Dir Wind Speed Gust Speed Precip Events Conditions
12:00 AM 69 °F - 67 °F 89% 30.05 in - SW 1.2 mph - -  
12:00 AM 69.8 °F - 66.2 °F 88% 30.04 in 6.2 mi SW 1.2 mph - N/A   Mostly Cloudy
12:30 AM 68.0 °F - 66.2 °F 94% 30.04 in 6.2 mi SW 5.8 mph - N/A   Unknown
1:00 AM 68.0 °F - 66.2 °F 94% 30.04 in 6.2 mi SSW 2.3 mph - N/A   Scattered Clouds
1:30 AM 68.0 °F - 66.2 °F 94% 30.01 in 6.2 mi SW 5.8 mph - N/A   Unknown
2:00 AM 68.0 °F - 64.4 °F 88% 30.01 in 6.2 mi SW 3.5 mph - N/A   Unknown
2:30 AM 68.0 °F - 64.4 °F 88% 30.01 in 6.2 mi SW 3.5 mph - N/A   Scattered Clouds
3:00 AM 68 °F - 66 °F 90% 30.02 in - SW 5.8 mph - -  
3:00 AM 68.0 °F - 66.2 °F 94% 30.01 in 6.2 mi SW 5.8 mph - N/A   Scattered Clouds
3:30 AM 66.2 °F - 64.4 °F 94% 30.01 in 6.2 mi SSW 4.6 mph - N/A   Unknown
4:00 AM 66.2 °F - 64.4 °F 94% 30.01 in 6.2 mi SSW 3.5 mph - N/A   Scattered Clouds
4:30 AM 66.2 °F - 64.4 °F 94% 30.01 in 6.2 mi SW 3.5 mph - N/A   Unknown
5:00 AM 66.2 °F - 64.4 °F 94% 30.04 in 6.2 mi SW 5.8 mph - N/A   Unknown
5:30 AM 66.2 °F - 62.6 °F 88% 30.04 in 6.2 mi SSW 1.2 mph - N/A   Unknown
6:00 AM 66 °F - 64 °F 90% 30.04 in - SW 3.5 mph - -  
6:00 AM 66.2 °F - 64.4 °F 94% 30.04 in 6.2 mi SSW 3.5 mph - N/A   Unknown
6:30 AM 66.2 °F - 64.4 °F 94% 30.04 in 6.2 mi SW 3.5 mph - N/A   Unknown
7:00 AM 68.0 °F - 66.2 °F 94% 30.04 in 6.2 mi SW 3.5 mph - N/A   Unknown
7:30 AM 71.6 °F - 68.0 °F 88% 30.04 in 6.2 mi South 3.5 mph - N/A   Unknown
8:00 AM 75.2 °F - 66.2 °F 73% 30.06 in 6.2 mi South 6.9 mph - N/A   Unknown
8:30 AM 77.0 °F - 64.4 °F 65% 30.06 in 6.2 mi South 8.1 mph - N/A   Unknown
9:00 AM 77 °F - 64 °F 56% 30.07 in - South 10.4 mph - -  
9:00 AM 77.0 °F - 64.4 °F 65% 30.06 in 6.2 mi South 10.4 mph - N/A   Unknown
9:30 AM 77.0 °F - 64.4 °F 65% 30.06 in 6.2 mi South 6.9 mph - N/A   Unknown
10:00 AM 77.0 °F - 64.4 °F 65% 30.04 in 6.2 mi South 6.9 mph - N/A   Scattered Clouds
10:30 AM 78.8 °F - 62.6 °F 57% 30.04 in 6.2 mi South 8.1 mph - N/A   Unknown
11:00 AM 80.6 °F 82.7 °F 66.2 °F 61% 30.04 in 6.2 mi South 6.9 mph - N/A   Scattered Clouds
11:30 AM 80.6 °F 82.3 °F 64.4 °F 58% 30.04 in 6.2 mi ESE 12.7 mph - N/A   Scattered Clouds
12:00 PM 81 °F - 65 °F 48% 30.02 in - ESE 12.7 mph - -  
12:00 PM 80.6 °F 82.3 °F 64.4 °F 58% 30.01 in 6.2 mi ESE 12.7 mph - N/A   Unknown
12:30 PM 80.6 °F 81.8 °F 62.6 °F 54% 30.01 in 6.2 mi ESE 12.7 mph - N/A   Unknown
1:00 PM 80.6 °F 81.5 °F 60.8 °F 51% 29.98 in 6.2 mi East 13.8 mph - N/A   Unknown
1:30 PM 80.6 °F 81.5 °F 60.8 °F 51% 29.98 in 6.2 mi ESE 15.0 mph - N/A   Unknown
2:00 PM 80.6 °F 82.3 °F 64.4 °F 58% 29.98 in 6.2 mi ESE 13.8 mph - N/A   Unknown
2:30 PM 80.6 °F 82.7 °F 66.2 °F 61% 29.98 in 6.2 mi East 12.7 mph - N/A   Unknown
3:00 PM 80 °F - 67 °F 55% 29.98 in - ESE 12.7 mph - -  
3:00 PM 80.6 °F 82.7 °F 66.2 °F 61% 29.98 in 6.2 mi ESE 12.7 mph - N/A   Unknown
3:30 PM 78.8 °F - 68.0 °F 69% 29.98 in 6.2 mi ESE 11.5 mph - N/A   Unknown
4:00 PM 78.8 °F - 66.2 °F 65% 29.98 in 6.2 mi ESE 9.2 mph - N/A   Scattered Clouds
4:30 PM 77.0 °F - 64.4 °F 65% 29.98 in 6.2 mi East 10.4 mph - N/A   Scattered Clouds
5:00 PM 77.0 °F - 64.4 °F 65% 29.98 in 6.2 mi ESE 8.1 mph - N/A   Scattered Clouds
5:30 PM 75.2 °F - 64.4 °F 69% 29.98 in 6.2 mi ESE 5.8 mph - N/A   Mostly Cloudy
6:00 PM 75 °F - 65 °F 62% 30.00 in - ESE 5.8 mph - -  
6:00 PM 75.2 °F - 64.4 °F 69% 29.98 in 6.2 mi ESE 5.8 mph - N/A   Mostly Cloudy
6:30 PM 75.2 °F - 64.4 °F 69% 30.01 in 6.2 mi ESE 5.8 mph - N/A   Mostly Cloudy
7:00 PM 75.2 °F - 64.4 °F 69% 30.01 in 6.2 mi SE 4.6 mph - N/A   Overcast
7:30 PM 75.2 °F - 64.4 °F 69% 30.01 in 6.2 mi ESE 5.8 mph - N/A   Overcast
8:00 PM 73.4 °F - 64.4 °F 73% 30.04 in 6.2 mi ESE 4.6 mph - N/A   Scattered Clouds
8:30 PM 73.4 °F - 64.4 °F 73% 30.04 in 6.2 mi ESE 5.8 mph - N/A   Unknown
9:00 PM 71 °F - 67 °F 83% 30.05 in - WSW 5.8 mph - -  
9:00 PM 71.6 °F - 66.2 °F 83% 30.04 in 6.2 mi WSW 5.8 mph - N/A   Unknown
10:30 PM 68.0 °F - 64.4 °F 88% 30.04 in 6.2 mi SW 3.5 mph - N/A   Unknown
11:00 PM 68.0 °F - 66.2 °F 94% 30.04 in 6.2 mi SW 4.6 mph - N/A   Unknown
11:30 PM 68.0 °F - 64.4 °F 88% 30.04 in 6.2 mi SW 2.3 mph - N/A   Unknown